FENGYUN 1C DEB

Satellite information

Favourite Embed

Satellite Type and Status

DEBRISIN ORBIT

Key statistics

Satellite FENGYUN 1C DEB at a glance.

Uptime

9494

Days in orbit

Revolutions

≈ 14.1

Per day

Orbit

SSO

Sun Synchronous Orbit

Inclination

98.7

Latest

Satellite identification and parameters

Extended collection of information and parameters for FENGYUN 1C DEB.

Object identification

Identified? True

Debris? True

Object name: FENGYUN 1C DEB

International designator: 1999-025XC

Object number (NORAD): 30243

Object ID (CCSDS): 30243

Country: PEOPLES REPUBLIC OF CHINA (PRC)

Current information (Y/N): Y

RCS size: SMALL

Orbital parameters

Period: 101.934 minutes

Inclination: 98.7005 deg

SMA: 7228.335 km

Apoapsis: 859.435 km

Periapsis: 840.964 km

RAAN: 143.995 deg

Eccentricy: 0.0012777

Argument of periapsis: 35.4048 deg

Mean anomaly: 340.0775 deg

Mean motion: 14.12685203 rev/day

Mean motion (dot): 0.00000908 rev/day2

B* drag term: 0.00051242 1/REarth

Two-line elements (TLE)

Creation date: May 7, 2025, 3:14 a.m.

Reference frame: TEME

Reference center: EARTH

Epoch: May 6, 2025, 6:53 a.m. UTC

TLE line 0: 0 FENGYUN 1C DEB

TLE line 1: 1 30243U 99025XC 25126.28681922 .00000908 00000-0 51242-3 0 9995

TLE line 2: 2 30243 98.7005 143.9950 0012777 35.4048 340.0775 14.12685203941666

Live tracking on map

Real-time ground track for satellite FENGYUN 1C DEB.

In-orbit conjunctions

A list of the most updated potential collisions computed for object FENGYUN 1C DEB.

Target Orbit TCA Probability of collision Miss distance Type
CZ-6A DEB SSO 2025-04-04 05:11:45 0.0002874019 153.0 (m) DEBRIS
COSMOS 2360 LEO 2025-01-12 23:05:56 0.0002297959 190.0 (m) PAYLOAD
COSMOS 1980 LEO 2024-11-08 07:30:54 0.0006598079 351.0 (m) PAYLOAD
COSMOS 2322 LEO 2024-10-16 08:45:07 0.0001604486 85.0 (m) PAYLOAD
SL-14 DEB LEO 2024-09-25 12:53:22 0.000386829 247.0 (m) DEBRIS

Associated space launch

Chinese polar orbiting meteorological satellite

FENGYUN 1C DEB was lifted into orbit during the mission ‘Long March 4B | Feng Yun 1C’, on board a Long March 4B space rocket.

The launch took place on May 10, 1999, 1:33 a.m. from Launch Complex 7.

For more information about the launch, click the button.

Launch to space Long March 4B | Feng Yun 1C
Long March 4B | Feng Yun 1C

Agency: N/A

Status: Launch Successful

Launch date: May 10, 1999, 1:33 a.m. UTC

Rocket: Long March 4B

Launch pad: Launch Complex 7

Location: Taiyuan Satellite Launch Center, People's Republic of China

...

Latest news about this satellite

There are no fresh news available about this satellite. Check back as we update our databases every day.


Newsletter sign-up

Weekly statistics, charts and insights to help you stay on top of the space industry.